Home   Weather   Galveston   Past weeks
Flag for USA

Past Weather in Galveston, Texas, USA — Yesterday and Last 2 Weeks

Now
57 °F

Sunny.


Feels Like: 53 °F
Forecast: 57 / 46 °F
Wind: 16 mph from North

Location: Scholes Field

Current Time: Dec 11, 2019 at 2:49:45 pm

Latest Report: Dec 11, 2019 at 1:52 pm


Visibility: 8 mi

Pressure: 30.41 "Hg

Humidity: 49%

Dew Point: 38 °F

Location of GalvestonLocation

Past Weather in Galveston — Graph

°F

Galveston Temperature Yesterday

Maximum temperature yesterday: 74 °F (at 2:52 am)
Minimum temperature yesterday: 50 °F (at 10:52 pm)
Average temperature yesterday: 58 °F

High & Low Weather Summary for the Past Weeks

 TemperatureHumidityPressure
High79 °F (Dec 6, 12:52 pm)100% (Nov 27, 1:52 am)30.50 "Hg (Nov 27, 1:52 am)
Low46 °F (Dec 11, 7:52 am)26% (Dec 1, 3:52 pm)29.68 "Hg (Nov 26, 3:52 pm)
Average66 °F78%30.07 "Hg
* Reported Nov 26 12:52 pm — Dec 11 12:52 pm, Galveston. Weather by CustomWeather, © 2019

Note: Actual official high and low records may vary slightly from our data, if they occured in-between our weather recording intervals... More about our weather records

Galveston Weather History for the Previous 24 Hours

Scroll right to see more
 ConditionsComfort  
Time TempWeatherWind HumidityBarometerVisibility
12:52 pm
Wed, Dec 11
55 °FSunny.17 mph53%30.43 "Hg10 mi
11:52 am54 °FSunny.17 mph57%30.48 "Hg10 mi
10:52 am52 °FSunny.16 mph64%30.50 "Hg10 mi
9:52 am49 °FScattered clouds.15 mph71%30.50 "Hg10 mi
9:42 am50 °FScattered clouds.16 mph71%30.50 "Hg10 mi
8:52 am47 °FOvercast.17 mph77%30.49 "Hg10 mi
7:52 am46 °FOvercast.16 mph83%30.48 "Hg10 mi
6:52 am47 °FOvercast.17 mph86%30.45 "Hg10 mi
6:28 am47 °FOvercast.20 mph86%30.44 "Hg10 mi
5:52 am47 °FOvercast.22 mph83%30.42 "Hg10 mi
4:52 am48 °FOvercast.21 mph80%30.40 "Hg10 mi
3:52 am48 °FOvercast.23 mph83%30.39 "Hg10 mi
3:22 am49 °FOvercast.23 mph80%30.39 "Hg10 mi
3:05 am49 °FOvercast.24 mph84%30.39 "Hg10 mi
2:52 am49 °FOvercast.23 mph84%30.39 "Hg10 mi
1:52 am49 °FOvercast.20 mph84%30.38 "Hg10 mi
1:41 am50 °FOvercast.24 mph80%30.38 "Hg10 mi
12:52 am50 °FOvercast.22 mph83%30.37 "Hg10 mi
12:25 am50 °FOvercast.22 mph83%30.37 "Hg10 mi
12:14 am50 °FOvercast.22 mph83%30.37 "Hg10 mi
11:52 pm
Tue, Dec 10
50 °FOvercast.28 mph83%30.37 "Hg10 mi
10:52 pm50 °FOvercast.26 mph83%30.35 "Hg10 mi
9:52 pm51 °FOvercast.28 mph83%30.34 "Hg10 mi
8:52 pm52 °FOvercast.25 mph83%30.30 "Hg10 mi
7:52 pm53 °FOvercast.24 mph83%30.28 "Hg10 mi
6:52 pm53 °FOvercast.21 mph86%30.25 "Hg10 mi
5:52 pm54 °FOvercast.28 mph83%30.22 "Hg10 mi
4:52 pm54 °FOvercast.25 mph86%30.19 "Hg10 mi
3:52 pm54 °FFog.25 mph86%30.16 "Hg5 mi
2:52 pm54 °FLight rain. Fog.28 mph90%30.14 "Hg5 mi
2:26 pm54 °FLight rain. Fog.31 mph90%30.15 "Hg3 mi
Weather by CustomWeather, © 2019

See weather overview

Advertising